Regional Weather Roundup
Issued by NWS

Home | Current Version | Previous Version | Text Only | Print | Product List | Glossary On
Versions: 1 2 3 4 5 6 7 8 9 10 11 12 13 14 15 16 17 18 19 20 21 22 23 24 25 26 27 28 29 30 31 32 33 34 35 36 37 38 39 40 41 42 43 44 45 46 47 48 49 50
000
ASUS44 KOUN 241610
RWROK

WEATHER ROUNDUP FOR OKLAHOMA
NATIONAL WEATHER SERVICE NORMAN OK
1100 AM CDT FRI OCT 24 2014

NOTE: "FAIR" INDICATES FEW OR NO CLOUDS BELOW 12,000 FEET WITH NO
      SIGNIFICANT WEATHER AND/OR OBSTRUCTIONS TO VISIBILITY.

OKZ001>007-009>012-014-015-017-241700-
NORTHWEST OKLAHOMA AND THE PANHANDLE

CITY           SKY/WX    TMP DP  RH WIND       PRES   REMARKS
GAGE           SUNNY     69  62  78 SW8       30.10S
ENID/WOODRING  PTSUNNY   68  61  77 S10       30.09S
$$

OKZ016-021>023-033>039-044-045-241700-
SOUTHWEST OKLAHOMA

CITY           SKY/WX    TMP DP  RH WIND       PRES   REMARKS
LAWTON/REGL    SUNNY     71  60  68 S9        30.12S
LAWTON/FT SILL SUNNY     71  61  70 S9        30.11S
FREDERICK      SUNNY     73  62  68 SW13      30.08F
CLINTON        SUNNY     68  61  78 S10       30.13R
HOBART         SUNNY     70  61  73 SW13      30.11S
ALTUS AFB      SUNNY     73  64  73 S7        30.10F
$$

OKZ018>020-024>031-241700-
CENTRAL OKLAHOMA

CITY           SKY/WX    TMP DP  RH WIND       PRES   REMARKS
OKLAHOMA CITY  MOSUNNY   70  59  68 S9        30.13R
OKC/WILEY POST SUNNY     70  59  68 S12       30.12S
OKC/TINKER AFB SUNNY     69  58  67 S12       30.13R
STILLWATER     SUNNY     70  57  63 S10       30.11S
GUTHRIE        SUNNY     70  59  68 S12       30.11S
$$

OKZ008-013-054>072-241700-
NORTHEAST OKLAHOMA

CITY           SKY/WX    TMP DP  RH WIND       PRES   REMARKS
TULSA          PTSUNNY   69  56  62 S9        30.11F
TULSA/JONES    SUNNY     69  55  60 S9        30.13S
PONCA CITY     SUNNY     68  58  70 VRB6      30.09F
BARTLESVILLE   SUNNY     70  58  65 SW13      30.11F
MUSKOGEE       SUNNY     66  57  72 SE7       30.16S
$$

OKZ032-040>043-046>053-073>077-241700-
SOUTH CENTRAL/SOUTHEAST OKLAHOMA

CITY           SKY/WX    TMP DP  RH WIND       PRES   REMARKS
MCALESTER      SUNNY     69  54  58 S9G16     30.17R
$$




USA.gov is the U.S. government's official web portal to all federal, state and local government web resources and services.